TimeCST,TemperatureF,Dew PointF,Humidity,Sea Level PressureIn,VisibilityMPH,Wind Direction,Wind SpeedMPH,Gust SpeedMPH,PrecipitationIn,Events,Conditions,WindDirDegrees,DateUTC
12:14 AM,3.2,-0.4,85,30.26,10.0,Calm,Calm,-,N/A,,Clear,0,2013-02-16 06:14:00
12:34 AM,3.2,1.4,92,30.25,10.0,Calm,Calm,-,N/A,,Clear,0,2013-02-16 06:34:00
12:55 AM,1.4,-0.4,92,30.25,10.0,Calm,Calm,-,N/A,,Clear,0,2013-02-16 06:55:00
1:14 AM,1.4,-2.2,85,30.24,10.0,Calm,Calm,-,N/A,,Clear,0,2013-02-16 07:14:00
1:34 AM,1.4,-0.4,92,30.23,10.0,Calm,Calm,-,N/A,,Clear,0,2013-02-16 07:34:00
1:55 AM,1.4,-2.2,85,30.23,10.0,Calm,Calm,-,N/A,,Clear,0,2013-02-16 07:55:00
2:15 AM,-5.8,-9.4,84,30.23,10.0,Calm,Calm,-,N/A,,Clear,0,2013-02-16 08:15:00
2:34 AM,-4.0,-7.6,85,30.22,10.0,Calm,Calm,-,N/A,,Clear,0,2013-02-16 08:34:00
2:54 AM,-4.0,-7.6,85,30.21,10.0,Calm,Calm,-,N/A,,Clear,0,2013-02-16 08:54:00
3:14 AM,-4.0,-7.6,85,30.20,10.0,Calm,Calm,-,N/A,,Clear,0,2013-02-16 09:14:00
3:34 AM,-4.0,-7.6,85,30.20,10.0,Calm,Calm,-,N/A,,Clear,0,2013-02-16 09:34:00
3:54 AM,-2.2,-5.8,85,30.19,10.0,Calm,Calm,-,N/A,,Clear,0,2013-02-16 09:54:00
4:14 AM,-2.2,-5.8,85,30.18,10.0,Calm,Calm,-,N/A,,Clear,0,2013-02-16 10:14:00
4:54 AM,-2.2,-5.8,85,30.17,10.0,Calm,Calm,-,N/A,,Clear,0,2013-02-16 10:54:00
5:14 AM,-2.2,-5.8,85,30.16,10.0,Calm,Calm,-,N/A,Snow,Light Snow,0,2013-02-16 11:14:00
5:34 AM,-7.6,-11.2,84,30.15,10.0,SE,5.8,-,N/A,,Clear,130,2013-02-16 11:34:00
5:54 AM,-9.4,-13.0,84,30.14,10.0,SE,8.1,-,N/A,,Clear,130,2013-02-16 11:54:00
6:14 AM,-9.4,-14.8,77,30.14,10.0,SE,3.5,-,N/A,,Clear,140,2013-02-16 12:14:00
6:34 AM,-7.6,-11.2,84,30.14,10.0,ESE,4.6,-,N/A,,Clear,120,2013-02-16 12:34:00
6:54 AM,-9.4,-14.8,77,30.14,10.0,ESE,5.8,-,N/A,,Clear,110,2013-02-16 12:54:00
7:14 AM,-11.2,-14.8,84,30.13,10.0,ESE,5.8,-,N/A,,Clear,110,2013-02-16 13:14:00
7:34 AM,-9.4,-14.8,77,30.13,10.0,SE,6.9,-,N/A,,Clear,130,2013-02-16 13:34:00
7:54 AM,-9.4,-14.8,77,30.12,10.0,ESE,8.1,-,N/A,,Clear,120,2013-02-16 13:54:00
8:14 AM,-9.4,-14.8,77,30.12,10.0,ESE,8.1,-,N/A,,Clear,110,2013-02-16 14:14:00
8:34 AM,-7.6,-11.2,84,30.12,10.0,ESE,8.1,-,N/A,,Clear,110,2013-02-16 14:34:00
8:54 AM,-5.8,-9.4,84,30.12,10.0,ESE,8.1,-,N/A,,Clear,110,2013-02-16 14:54:00
9:14 AM,-4.0,-7.6,85,30.12,5.0,ESE,8.1,-,N/A,,Clear,110,2013-02-16 15:14:00
9:34 AM,-2.2,-5.8,85,30.12,5.0,ESE,5.8,-,N/A,,Clear,120,2013-02-16 15:34:00
9:54 AM,-0.4,-2.2,92,30.12,7.0,SE,8.1,-,N/A,Snow,Light Snow,140,2013-02-16 15:54:00
10:14 AM,1.4,-0.4,92,30.12,7.0,SE,9.2,-,N/A,Snow,Light Snow,140,2013-02-16 16:14:00
10:35 AM,5.0,1.4,85,30.12,1.8,SE,9.2,-,N/A,Snow,Light Snow,130,2013-02-16 16:35:00
10:54 AM,6.8,5.0,92,30.12,2.0,SE,11.5,-,N/A,Snow,Light Snow,130,2013-02-16 16:54:00
11:14 AM,8.6,6.8,92,30.12,2.5,SE,12.7,-,N/A,Snow,Light Snow,130,2013-02-16 17:14:00
11:34 AM,10.4,6.8,85,30.12,3.0,SE,12.7,-,N/A,Snow,Light Snow,130,2013-02-16 17:34:00
11:54 AM,10.4,8.6,92,30.11,5.0,SE,11.5,-,N/A,Snow,Light Snow,130,2013-02-16 17:54:00
12:14 PM,10.4,8.6,92,30.10,4.0,ESE,13.8,-,N/A,Snow,Light Snow,120,2013-02-16 18:14:00
12:34 PM,12.2,10.4,92,30.09,4.0,ESE,15.0,-,N/A,Snow,Light Snow,120,2013-02-16 18:34:00
12:54 PM,12.2,10.4,92,30.09,3.0,SE,12.7,-,N/A,Snow,Light Snow,130,2013-02-16 18:54:00
1:14 PM,12.2,10.4,92,30.09,5.0,SE,15.0,-,N/A,Snow,Light Snow,130,2013-02-16 19:14:00
1:34 PM,12.2,10.4,92,30.08,5.0,North,-9999.0,-,N/A,Snow,Light Snow,0,2013-02-16 19:34:00
1:55 PM,14.0,10.4,86,30.08,7.0,SE,13.8,-,N/A,Snow,Light Snow,140,2013-02-16 19:55:00
2:14 PM,14.0,10.4,86,30.07,10.0,SE,13.8,-,N/A,Snow,Light Snow,130,2013-02-16 20:14:00
2:34 PM,14.0,10.4,86,30.07,10.0,SE,15.0,-,N/A,,Overcast,130,2013-02-16 20:34:00
2:54 PM,15.8,10.4,79,30.07,10.0,SE,16.1,-,N/A,,Overcast,140,2013-02-16 20:54:00
3:14 PM,15.8,10.4,79,30.07,10.0,SE,13.8,-,N/A,,Overcast,130,2013-02-16 21:14:00
3:34 PM,15.8,12.2,86,30.07,10.0,SE,13.8,-,N/A,,Overcast,130,2013-02-16 21:34:00
3:54 PM,15.8,12.2,86,30.07,10.0,SE,12.7,-,N/A,,Overcast,130,2013-02-16 21:54:00
4:14 PM,15.8,12.2,86,30.06,10.0,ESE,13.8,-,N/A,,Overcast,120,2013-02-16 22:14:00
4:35 PM,15.8,12.2,86,30.06,10.0,ESE,16.1,-,N/A,,Overcast,120,2013-02-16 22:35:00
4:54 PM,15.8,12.2,86,30.07,10.0,ESE,15.0,-,N/A,,Overcast,120,2013-02-16 22:54:00
5:16 PM,15.8,10.4,79,30.07,10.0,SE,15.0,-,N/A,,Overcast,130,2013-02-16 23:16:00
5:36 PM,14.0,10.4,86,30.07,10.0,ESE,16.1,-,N/A,,Overcast,120,2013-02-16 23:36:00
5:55 PM,14.0,10.4,86,30.07,10.0,SE,15.0,-,N/A,,Overcast,130,2013-02-16 23:55:00
6:15 PM,14.0,10.4,86,30.06,10.0,SE,16.1,-,N/A,,Overcast,130,2013-02-17 00:15:00
6:33 PM,14.0,10.4,86,30.07,10.0,SE,13.8,-,N/A,,Overcast,130,2013-02-17 00:33:00
6:54 PM,12.2,10.4,92,30.06,10.0,ESE,13.8,-,N/A,,Overcast,120,2013-02-17 00:54:00
7:14 PM,12.2,8.6,85,30.06,10.0,ESE,12.7,-,N/A,,Scattered Clouds,110,2013-02-17 01:14:00
7:34 PM,10.4,6.8,85,30.07,10.0,ESE,8.1,-,N/A,,Clear,120,2013-02-17 01:34:00
7:40 PM,8.6,6.8,92,30.07,10.0,ESE,9.2,-,N/A,,Clear,120,2013-02-17 01:40:00
8:14 PM,8.6,6.8,92,30.06,10.0,SE,11.5,-,N/A,,Overcast,130,2013-02-17 02:14:00
8:35 PM,6.8,3.2,85,30.06,10.0,SE,8.1,-,N/A,,Scattered Clouds,130,2013-02-17 02:35:00
8:55 PM,8.6,6.8,92,30.04,10.0,SE,11.5,-,N/A,,Clear,130,2013-02-17 02:55:00
9:14 PM,6.8,3.2,85,30.04,10.0,SE,9.2,-,N/A,,Clear,130,2013-02-17 03:14:00
9:34 PM,5.0,1.4,85,30.05,10.0,ESE,5.8,-,N/A,,Clear,120,2013-02-17 03:34:00
9:54 PM,3.2,-0.4,85,30.05,10.0,SE,8.1,-,N/A,,Clear,130,2013-02-17 03:54:00
10:15 PM,3.2,1.4,92,30.04,10.0,SE,9.2,-,N/A,,Clear,130,2013-02-17 04:15:00
10:34 PM,3.2,1.4,92,30.03,10.0,SE,11.5,-,N/A,,Clear,130,2013-02-17 04:34:00
10:54 PM,5.0,3.2,92,30.01,10.0,SE,12.7,-,N/A,,Clear,130,2013-02-17 04:54:00
11:14 PM,5.0,3.2,92,30.01,10.0,SE,12.7,-,N/A,,Clear,130,2013-02-17 05:14:00
11:34 PM,8.6,6.8,92,29.99,10.0,SE,15.0,-,N/A,,Clear,140,2013-02-17 05:34:00
11:54 PM,8.6,6.8,92,29.98,10.0,SSE,16.1,-,N/A,,Clear,150,2013-02-17 05:54:00